Vertical_Velocity
0 -0 -1 0 -0 -3 -1 1 -1 -1 1 0 1 1 0 0 -0 -3 1 0 1 -1 -0 -0 2 2 -0 2 1 -1 -1 -0 1 1 -0 1 1 1 0 -1 -1 -0 -1
-1 -2 -0 -1 -1 -4 -1 -0 1 -1 -3 -3 0 -1 3 3 1 1 -2 1 2 4 4 -1 -3 -1 0 0 0 -0 0 -0 -0 1 1 1 2 2 1 -0 -0 0 0
-1 1 2 2 -2 -3 -2 -3 -1 2 2 -1 -3 -1 -2 -1 2 1 -1 2 2 0 -0 -3 1 -5 -0 2 1 0 -2 1 1 0 -0 2 -0 1 -0 -1 1 2 0
-2 -1 -1 -0 -0 2 -1 -4 -2 -3 -2 0 2 -2 -3 -1 -4 -2 1 2 2 2 2 1 -1 -3 -2 -2 0 0 -0 -0 -2 1 4 4 1 1 -1 1 2 -2 2
-2 1 1 2 1 1 -0 0 1 -1 -0 1 -0 3 -3 -3 -0 -1 -2 -1 -2 1 -1 2 1 0 1 -1 -4 -5 -6 -3 -0 -2 -0 2 -0 -1 6 6 1 16 12
-1 -1 -2 -2 -0 1 1 0 4 -1 2 0 1 1 -0 0 -4 -3 -2 -1 1 2 2 0 2 0 1 6 -1 -5 -4 -1 0 -3 -4 9 1 17 14 15 -1 24 7
-1 -1 -0 -2 -2 -1 -1 -0 -1 2 -2 -4 1 -3 4 1 4 1 -3 -2 -1 0 0 0 -0 -0 -3 -3 4 -6 28 -6 5 111 2 1 2 -6 1 12 12 0 -4
-1 -1 -0 -1 -0 -2 -2 -2 -2 -2 -1 -4 -1 -0 5 11 -5 -5 1 1 0 -3 1 2 0 1 3 2 3 -0 -2 -7 13 -6 -0 1 0 -4 -4 20 6 1 7
-1 -1 -3 -1 -0 1 -1 -2 -1 3 -0 -5 -5 1 2 2 10 -3 0 -5 -6 2 -1 -0 -1 -0 5 7 2 3 17 -13 17 -4 2 7 -2 -2 3 9 15 7 3
-1 -1 -1 -0 -1 0 1 -1 -1 -1 6 -1 -3 -4 -5 -1 -2 29 2 -11 -4 -3 -3 2 0 -5 3 -6 3 0 8 6 1 -8 1 3 6 0 17 3 7 7 6
1 -0 -0 -1 -0 -0 0 0 1 0 0 -0 -2 -4 -3 -5 -6 -4 7 -1 -7 -6 1 -2 1 -1 -2 1 40 21 9 5 -0 -2 -5 -0 3 2 13 3 7 26 5
1 -1 -0 -0 -0 1 -0 0 -0 -1 -3 -3 -2 0 -1 0 -1 -2 -0 -5 -1 -7 -4 -7 -6 2 7 16 4 14 117 36 1 -4 0 2 -2 4 -1 5 -4 1 -4
1 0 0 -1 -2 -1 -0 -0 -1 -2 -2 -0 -0 -2 -2 -2 -0 -3 -1 -4 0 -8 2 3 -3 -3 -2 -6 3 -7 19 42 8 78 66 19 -5 -0 -3 -3 1 -4 -4
-1 -2 -2 -1 -3 -2 -2 -2 -1 -1 0 -1 -2 -2 -3 -4 -6 -4 -2 -1 -5 -0 -5 -2 4 -2 -8 -5 -5 -4 4 12 3 -15 -8 -5 -6 -4 1 -7 -2 -4 -1
-1 0 -0 -0 -1 -1 -1 0 -1 -1 -1 -2 -1 -1 -2 -3 -4 -4 -4 -4 -2 -0 3 -3 -4 -1 -1 -3 0 2 -3 -0 -6 -4 -6 -2 -3 -2 -2 -1 -2 -4 -4
-2 1 -0 -1 -0 -1 -0 -1 -0 -2 -1 -1 -2 -1 -1 -2 -3 -2 -3 -4 -4 -5 -1 2 3 0 -2 -1 -5 1 4 1 -0 -1 1 -1 -0 -0 -1 -2 -2 -1 -3
-1 -1 -1 0 -0 -1 -1 1 -0 -0 -1 -2 1 1 0 -0 -1 -2 -2 -1 -2 -5 -6 -5 -5 -5 -0 3 2 1 -1 -0 -2 -3 -1 1 -1 -1 -1 -0 0 1 1
-0 0 -1 -1 -1 -1 1 0 1 0 1 2 1 0 -2 -3 -3 -4 -3 -1 -1 -0 -2 -4 -3 -4 -5 -5 -5 -4 -3 -2 -3 -5 -4 -2 -3 -3 -4 -4 -3 -3 -3
-2 -2 -2 -1 -0 -0 0 0 -0 -1 1 -1 -1 -2 -2 -2 -2 -2 -2 -3 -4 -2 -0 -1 -3 -3 -2 -3 -3 -3 -4 -4 -4 -2 -1 -2 -2 -2 -1 -0 1 -2 -0
-1 -1 -1 -2 0 -0 -1 0 1 -0 -1 -1 -1 -2 -2 -2 -2 -2 -2 -2 -3 -3 -2 -2 -1 0 -1 -1 1 0 0 -0 -3 -2 -2 -3 -2 -0 0 1 0 -2 1
-1 2 -1 0 -1 -1 1 2 1 1 -2 -3 -3 -3 -2 -2 -1 -1 -1 -1 -1 -1 -2 -3 -3 -3 -2 -1 -1 -0 1 -2 -2 -2 2 -1 2 0 0 1 1 1 1
-1 2 -3 -1 0 1 -2 0 -1 -2 -3 -1 -1 -1 -2 -2 -2 -2 -2 -4 -2 -2 -0 1 1 -1 -2 -2 -2 -3 -2 1 1 -3 1 -0 -1 -2 -2 -3 -4 -2 -0
1 -0 1 0 -0 -0 -0 -1 0 0 1 -0 -1 -0 2 -1 -1 -1 -2 -0 0 -1 -2 -2 -1 -1 -3 -1 -0 -1 -2 -1 -1 2 -2 1 -2 0 1 1 1 1 1
0 1 1 -0 3 -3 -1 -2 0 -0 -1 -2 -1 -0 -2 -1 -3 -3 -2 -1 -2 -2 -0 1 -1 -1 -2 -2 0 1 1 2 -1 -2 -1 -3 -1 -4 0 -0 -3 0 -1
1 -3 1 -2 1 -1 0 -3 -1 0 -0 -3 1 1 -1 -3 4 1 -2 -1 1 1 -1 -2 -1 1 -0 0 2 -3 -3 -2 1 1 -0 -0 1 -2 -3 -1 -1 3 -1
0 0 2 -1 -0 5 -4 0 -1 0 2 -3 2 -1 3 0 -0 4 2 0 -2 1 -1 -1 0 0 -0 -0 -2 0 -0 -1 0 3 -4 -1 0 4 -0 -5 -4 -0 1
Height
5838 5837 5835 5833 5831 5828 5827 5825 5823 5821 5819 5817 5815 5813 5812 5810 5808 5806 5805 5803 5801 5801 5800 5799 5798 5798 5797 5797 5797 5797 5798 5798 5798 5797 5798 5798 5799 5799 5799 5799 5799 5799 5799
5832 5830 5828 5825 5822 5819 5816 5815 5813 5811 5809 5806 5805 5802 5800 5798 5796 5795 5793 5792 5791 5790 5787 5786 5785 5785 5786 5786 5786 5786 5787 5787 5787 5787 5787 5788 5789 5789 5790 5790 5790 5791 5791
5824 5821 5819 5816 5812 5809 5806 5803 5801 5799 5797 5794 5792 5789 5787 5785 5784 5783 5782 5779 5777 5775 5774 5774 5772 5772 5772 5773 5774 5774 5775 5776 5776 5776 5776 5777 5778 5778 5780 5780 5781 5780 5781
5814 5811 5808 5804 5801 5798 5794 5791 5788 5786 5784 5783 5781 5778 5776 5774 5772 5770 5769 5767 5766 5764 5761 5759 5759 5760 5759 5758 5760 5761 5763 5763 5763 5764 5766 5766 5767 5767 5768 5769 5770 5770 5770
5803 5800 5796 5792 5789 5786 5782 5779 5776 5774 5772 5770 5769 5767 5765 5763 5762 5761 5758 5755 5752 5750 5748 5746 5744 5743 5744 5744 5745 5748 5750 5751 5753 5753 5753 5755 5757 5756 5756 5756 5758 5760 5759
5790 5787 5783 5779 5777 5772 5768 5765 5763 5761 5761 5759 5759 5758 5757 5754 5751 5748 5745 5741 5739 5735 5732 5729 5728 5728 5727 5727 5731 5734 5736 5739 5741 5743 5743 5743 5744 5742 5745 5745 5746 5745 5746
5780 5776 5771 5767 5763 5759 5755 5752 5750 5750 5749 5749 5750 5749 5748 5744 5739 5735 5731 5726 5722 5718 5714 5710 5708 5707 5708 5710 5713 5719 5723 5720 5725 5721 5730 5729 5730 5733 5733 5733 5732 5734 5736
5768 5764 5761 5758 5755 5751 5748 5746 5745 5744 5743 5742 5741 5740 5738 5733 5727 5721 5716 5711 5706 5701 5695 5690 5685 5685 5685 5688 5694 5701 5706 5707 5704 5712 5715 5720 5720 5722 5721 5721 5721 5723 5726
5760 5757 5754 5751 5748 5745 5742 5740 5738 5737 5734 5732 5730 5728 5726 5723 5719 5710 5703 5697 5690 5680 5670 5664 5662 5663 5664 5668 5674 5682 5689 5697 5690 5701 5703 5710 5713 5715 5712 5709 5710 5712 5714
5753 5749 5746 5742 5739 5737 5735 5733 5731 5729 5727 5723 5721 5719 5715 5713 5709 5707 5692 5683 5670 5660 5654 5646 5644 5646 5650 5654 5658 5666 5672 5678 5685 5689 5692 5697 5702 5704 5701 5702 5702 5701 5702
5745 5742 5738 5735 5732 5730 5729 5727 5725 5722 5720 5717 5714 5711 5708 5704 5698 5692 5685 5671 5658 5649 5641 5635 5634 5637 5639 5644 5642 5651 5657 5667 5671 5676 5681 5685 5688 5690 5690 5689 5690 5689 5690
5739 5735 5732 5729 5727 5725 5724 5722 5719 5717 5714 5711 5709 5706 5703 5700 5693 5685 5675 5663 5653 5645 5639 5636 5634 5633 5635 5637 5637 5644 5649 5657 5662 5667 5671 5672 5675 5676 5680 5678 5680 5681 5682
5733 5729 5726 5724 5723 5722 5720 5718 5716 5714 5711 5708 5705 5701 5698 5694 5688 5681 5672 5660 5651 5643 5639 5635 5635 5635 5636 5635 5639 5642 5647 5647 5655 5651 5652 5658 5662 5666 5669 5670 5670 5672 5673
5727 5724 5721 5721 5720 5718 5716 5714 5712 5710 5707 5704 5701 5697 5693 5688 5683 5677 5670 5660 5649 5642 5639 5636 5634 5636 5638 5637 5640 5640 5643 5646 5649 5652 5654 5653 5652 5656 5658 5660 5661 5662 5663
5721 5719 5718 5718 5717 5715 5713 5711 5708 5705 5702 5699 5696 5692 5688 5684 5679 5674 5667 5660 5652 5643 5637 5636 5635 5635 5635 5636 5636 5638 5641 5642 5643 5644 5645 5645 5646 5646 5647 5647 5648 5649 5649
5716 5716 5715 5714 5713 5711 5709 5706 5703 5700 5697 5694 5691 5688 5684 5679 5675 5670 5665 5659 5653 5647 5641 5636 5633 5633 5632 5632 5632 5632 5631 5633 5633 5634 5634 5634 5635 5634 5635 5635 5636 5636 5636
5711 5711 5711 5710 5708 5707 5704 5701 5699 5696 5693 5690 5687 5683 5678 5674 5670 5666 5661 5656 5652 5648 5644 5640 5636 5634 5631 5629 5627 5626 5626 5626 5626 5624 5624 5623 5623 5623 5623 5623 5623 5623 5624
5707 5707 5706 5706 5704 5701 5699 5696 5693 5691 5688 5685 5681 5677 5674 5669 5665 5661 5657 5653 5649 5645 5642 5639 5636 5633 5630 5627 5625 5621 5619 5618 5618 5616 5616 5615 5614 5613 5612 5611 5611 5611 5611
5703 5702 5701 5700 5698 5696 5693 5690 5688 5685 5683 5679 5676 5673 5670 5666 5661 5657 5653 5649 5645 5642 5639 5636 5633 5630 5627 5623 5620 5616 5614 5611 5609 5608 5607 5606 5605 5604 5603 5602 5602 5601 5600
5698 5696 5695 5693 5691 5689 5687 5685 5682 5679 5677 5674 5671 5668 5665 5661 5657 5653 5649 5645 5641 5638 5634 5631 5627 5624 5621 5618 5615 5612 5610 5607 5604 5602 5601 5598 5597 5596 5595 5594 5593 5592 5590
5690 5688 5686 5685 5683 5681 5679 5677 5675 5673 5670 5668 5665 5662 5658 5655 5652 5648 5644 5640 5637 5633 5629 5625 5622 5618 5615 5612 5609 5606 5603 5600 5597 5595 5593 5591 5589 5588 5586 5585 5583 5582 5580
5680 5679 5678 5676 5675 5673 5670 5669 5667 5665 5663 5660 5657 5654 5651 5648 5645 5641 5637 5634 5630 5626 5623 5619 5615 5612 5608 5604 5601 5598 5595 5593 5591 5586 5583 5581 5579 5577 5575 5573 5571 5569 5568
5672 5670 5668 5667 5665 5663 5660 5659 5657 5655 5653 5650 5647 5644 5642 5639 5636 5633 5630 5626 5623 5618 5614 5611 5607 5603 5600 5597 5593 5589 5585 5583 5580 5578 5573 5570 5567 5565 5564 5562 5559 5558 5556
5662 5660 5657 5655 5655 5652 5650 5647 5645 5643 5641 5639 5637 5635 5631 5628 5626 5623 5620 5617 5613 5609 5606 5601 5597 5593 5589 5585 5582 5579 5576 5572 5568 5565 5563 5560 5556 5553 5551 5549 5547 5545 5543
5649 5647 5645 5643 5641 5638 5636 5634 5632 5630 5629 5627 5624 5621 5618 5616 5614 5611 5608 5605 5602 5599 5596 5592 5589 5585 5581 5576 5571 5568 5566 5562 5558 5554 5550 5548 5546 5543 5540 5537 5535 5533 5530
5634 5632 5630 5627 5625 5623 5621 5619 5617 5615 5614 5611 5609 5607 5604 5602 5599 5597 5595 5592 5589 5587 5584 5581 5577 5573 5569 5565 5561 5557 5553 5549 5546 5543 5540 5538 5534 5531 5529 5525 5523 5521 5518